QPF
0.00 0.01 0.01 0.01 0.01 0.00 0.00 0.00 0.00 0.00 0.00 0.01 0.01 0.01 0.01 0.00 0.00 0.01 0.01 0.00 0.00 0.01 0.00 0.00 0.00 0.00 0.00 0.00 0.00 0.00 0.00 0.00 0.01 0.02 0.02 0.03 0.02 0.02 0.02 0.02 0.04 0.04 0.04 0.04
0.00 0.00 0.00 0.00 0.00 0.00 0.00 0.00 0.00 0.00 0.00 0.00 0.01 0.01 0.01 0.01 0.01 0.02 0.01 0.01 0.01 0.00 0.00 0.00 0.00 0.00 0.00 0.00 0.00 0.00 0.00 0.00 0.00 0.00 0.00 0.01 0.01 0.02 0.02 0.02 0.02 0.02 0.03 0.03
0.00 0.00 0.00 0.00 0.00 0.00 0.00 0.00 0.00 0.00 0.00 0.00 0.00 0.01 0.01 0.01 0.01 0.02 0.02 0.02 0.01 0.00 0.00 0.00 0.00 0.00 0.00 0.00 0.00 0.00 0.00 0.00 0.00 0.00 0.00 0.00 0.00 0.00 0.01 0.01 0.01 0.01 0.01 0.02
0.00 0.00 0.00 0.00 0.00 0.00 0.00 0.00 0.00 0.00 0.00 0.00 0.00 0.01 0.01 0.01 0.01 0.02 0.02 0.02 0.01 0.01 0.00 0.00 0.00 0.00 0.00 0.00 0.00 0.00 0.00 0.00 0.00 0.00 0.00 0.00 0.00 0.00 0.01 0.01 0.01 0.01 0.01 0.01
0.00 0.00 0.00 0.00 0.00 0.00 0.00 0.00 0.00 0.01 0.00 0.00 0.00 0.01 0.00 0.00 0.01 0.01 0.01 0.01 0.00 0.00 0.00 0.00 0.00 0.00 0.00 0.00 0.00 0.00 0.00 0.00 0.00 0.00 0.01 0.01 0.01 0.01 0.01 0.01 0.01 0.01 0.01 0.01
0.00 0.00 0.00 0.00 0.00 0.00 0.00 0.00 0.00 0.00 0.00 0.00 0.00 0.00 0.00 0.00 0.00 0.00 0.00 0.01 0.00 0.00 0.00 0.00 0.00 0.00 0.00 0.00 0.00 0.00 0.00 0.00 0.00 0.00 0.00 0.01 0.01 0.01 0.01 0.02 0.02 0.01 0.01 0.01
0.01 0.01 0.00 0.00 0.00 0.00 0.00 0.00 0.01 0.01 0.00 0.00 0.00 0.00 0.00 0.00 0.00 0.00 0.00 0.00 0.00 0.00 0.00 0.00 0.00 0.00 0.00 0.00 0.00 0.00 0.00 0.00 0.00 0.00 0.00 0.01 0.01 0.01 0.02 0.02 0.02 0.02 0.02 0.01
0.01 0.01 0.01 0.00 0.00 0.00 0.00 0.00 0.00 0.00 0.00 0.00 0.00 0.00 0.00 0.00 0.00 0.00 0.00 0.00 0.00 0.00 0.00 0.00 0.00 0.00 0.00 0.00 0.00 0.00 0.00 0.00 0.00 0.00 0.01 0.01 0.01 0.01 0.02 0.03 0.03 0.03 0.02 0.02
0.00 0.01 0.01 0.00 0.00 0.00 0.00 0.00 0.00 0.00 0.00 0.00 0.00 0.00 0.00 0.00 0.00 0.00 0.00 0.00 0.00 0.00 0.00 0.00 0.00 0.00 0.00 0.00 0.00 0.00 0.00 0.00 0.00 0.00 0.00 0.01 0.01 0.02 0.01 0.02 0.03 0.04 0.04 0.05
0.00 0.00 0.00 0.00 0.00 0.00 0.00 0.00 0.00 0.00 0.00 0.00 0.00 0.00 0.00 0.00 0.00 0.00 0.00 0.00 0.00 0.00 0.00 0.00 0.00 0.00 0.00 0.00 0.00 0.00 0.00 0.00 0.00 0.00 0.00 0.00 0.00 0.01 0.01 0.01 0.02 0.02 0.02 0.02
0.00 0.00 0.00 0.00 0.00 0.00 0.00 0.00 0.00 0.00 0.00 0.00 0.00 0.00 0.00 0.00 0.00 0.00 0.00 0.00 0.00 0.00 0.00 0.00 0.00 0.00 0.00 0.00 0.00 0.00 0.00 0.00 0.00 0.00 0.00 0.00 0.00 0.01 0.01 0.01 0.01 0.01 0.01 0.01
0.00 0.00 0.00 0.00 0.00 0.00 0.00 0.00 0.00 0.01 0.01 0.00 0.00 0.00 0.00 0.00 0.00 0.00 0.00 0.00 0.00 0.00 0.00 0.00 0.00 0.00 0.00 0.00 0.00 0.00 0.00 0.00 0.00 0.00 0.00 0.00 0.00 0.00 0.00 0.00 0.00 0.01 0.01 0.01
0.00 0.01 0.00 0.00 0.00 0.00 0.00 0.00 0.00 0.01 0.01 0.01 0.00 0.00 0.00 0.00 0.00 0.00 0.00 0.00 0.00 0.00 0.00 0.00 0.00 0.00 0.00 0.00 0.00 0.00 0.00 0.00 0.00 0.00 0.00 0.00 0.00 0.00 0.00 0.00 0.00 0.00 0.00 0.01
0.00 0.00 0.00 0.00 0.00 0.00 0.00 0.00 0.00 0.01 0.01 0.00 0.00 0.00 0.00 0.00 0.00 0.00 0.00 0.00 0.00 0.00 0.00 0.00 0.00 0.00 0.00 0.00 0.00 0.00 0.00 0.00 0.00 0.00 0.00 0.00 0.00 0.00 0.00 0.00 0.00 0.00 0.00 0.01
0.00 0.00 0.00 0.00 0.00 0.00 0.00 0.00 0.00 0.01 0.01 0.00 0.00 0.00 0.00 0.00 0.00 0.00 0.00 0.00 0.00 0.00 0.00 0.00 0.00 0.00 0.00 0.00 0.00 0.00 0.00 0.00 0.00 0.00 0.00 0.00 0.00 0.00 0.00 0.01 0.01 0.00 0.00 0.01
0.00 0.00 0.00 0.00 0.00 0.00 0.00 0.00 0.00 0.00 0.00 0.00 0.00 0.00 0.00 0.00 0.00 0.00 0.00 0.00 0.00 0.00 0.00 0.00 0.00 0.00 0.00 0.00 0.00 0.00 0.00 0.00 0.00 0.00 0.00 0.00 0.00 0.00 0.00 0.00 0.01 0.01 0.01 0.01
0.00 0.01 0.01 0.01 0.00 0.00 0.00 0.00 0.00 0.00 0.00 0.00 0.00 0.00 0.00 0.00 0.00 0.00 0.00 0.00 0.00 0.00 0.00 0.00 0.00 0.00 0.00 0.00 0.00 0.00 0.00 0.00 0.00 0.00 0.00 0.00 0.00 0.00 0.00 0.00 0.00 0.00 0.00 0.01
0.00 0.01 0.01 0.01 0.00 0.00 0.00 0.00 0.00 0.00 0.00 0.00 0.00 0.00 0.00 0.00 0.00 0.00 0.00 0.00 0.00 0.00 0.00 0.00 0.00 0.00 0.00 0.00 0.00 0.00 0.00 0.00 0.00 0.00 0.00 0.00 0.00 0.00 0.00 0.00 0.00 0.00 0.00 0.00
0.00 0.01 0.01 0.01 0.01 0.00 0.00 0.00 0.00 0.00 0.00 0.00 0.00 0.00 0.00 0.00 0.00 0.00 0.00 0.00 0.00 0.00 0.00 0.00 0.00 0.00 0.00 0.00 0.00 0.00 0.00 0.00 0.00 0.00 0.00 0.00 0.00 0.00 0.00 0.00 0.00 0.00 0.01 0.01
0.00 0.00 0.01 0.01 0.01 0.00 0.00 0.00 0.00 0.00 0.00 0.00 0.00 0.00 0.00 0.00 0.00 0.00 0.00 0.00 0.00 0.00 0.00 0.00 0.00 0.00 0.00 0.00 0.00 0.00 0.00 0.00 0.00 0.00 0.00 0.00 0.00 0.00 0.00 0.00 0.01 0.00 0.01 0.01
0.01 0.01 0.02 0.02 0.02 0.01 0.00 0.00 0.00 0.00 0.00 0.00 0.00 0.00 0.00 0.00 0.00 0.00 0.00 0.00 0.00 0.00 0.00 0.00 0.00 0.00 0.00 0.00 0.00 0.00 0.00 0.00 0.00 0.00 0.00 0.00 0.00 0.00 0.00 0.00 0.01 0.01 0.01 0.01
0.00 0.01 0.01 0.02 0.02 0.00 0.00 0.00 0.00 0.00 0.00 0.00 0.00 0.00 0.00 0.00 0.00 0.00 0.00 0.00 0.00 0.00 0.00 0.00 0.00 0.00 0.00 0.00 0.00 0.00 0.00 0.00 0.00 0.00 0.00 0.00 0.00 0.00 0.00 0.00 0.00 0.01 0.01 0.01
0.00 0.01 0.01 0.01 0.00 0.00 0.00 0.00 0.00 0.00 0.00 0.00 0.00 0.00 0.00 0.00 0.00 0.00 0.00 0.00 0.00 0.00 0.00 0.00 0.00 0.00 0.00 0.00 0.00 0.00 0.00 0.00 0.00 0.00 0.00 0.00 0.00 0.00 0.00 0.00 0.00 0.00 0.00 0.01
0.00 0.00 0.00 0.00 0.00 0.00 0.00 0.00 0.00 0.00 0.00 0.00 0.00 0.00 0.00 0.00 0.00 0.00 0.00 0.00 0.00 0.00 0.00 0.00 0.00 0.00 0.00 0.00 0.00 0.00 0.00 0.00 0.00 0.00 0.00 0.00 0.00 0.00 0.00 0.00 0.00 0.00 0.00 0.00
0.00 0.00 0.00 0.00 0.00 0.00 0.00 0.00 0.00 0.00 0.00 0.00 0.00 0.00 0.00 0.00 0.00 0.00 0.00 0.00 0.00 0.00 0.00 0.00 0.00 0.00 0.00 0.00 0.00 0.00 0.00 0.00 0.00 0.00 0.00 0.00 0.00 0.00 0.00 0.00 0.00 0.01 0.01 0.01
0.00 0.00 0.01 0.01 0.00 0.00 0.00 0.00 0.00 0.00 0.00 0.00 0.00 0.00 0.00 0.00 0.00 0.00 0.00 0.00 0.00 0.00 0.00 0.00 0.00 0.00 0.00 0.00 0.00 0.00 0.00 0.00 0.00 0.00 0.00 0.00 0.00 0.00 0.00 0.00 0.00 0.00 0.00 0.00
MSLP
1015.22 1015.41 1015.68 1016.03 1016.45 1016.93 1017.43 1017.89 1018.27 1018.54 1018.67 1018.66 1018.52 1018.32 1018.08 1017.88 1017.77 1017.76 1017.88 1018.12 1018.44 1018.82 1019.20 1019.56 1019.86 1020.09 1020.24 1020.31 1020.33 1020.28 1020.20 1020.06 1019.88 1019.66 1019.39 1019.09 1018.75 1018.40 1018.04 1017.69 1017.35 1017.02 1016.70 1016.38
1016.10 1016.31 1016.56 1016.87 1017.24 1017.64 1018.04 1018.40 1018.67 1018.81 1018.82 1018.68 1018.42 1018.09 1017.74 1017.44 1017.24 1017.17 1017.26 1017.49 1017.83 1018.24 1018.67 1019.08 1019.43 1019.71 1019.92 1020.04 1020.11 1020.12 1020.08 1019.98 1019.84 1019.64 1019.38 1019.06 1018.71 1018.32 1017.93 1017.54 1017.18 1016.85 1016.54 1016.24
1017.02 1017.25 1017.50 1017.78 1018.08 1018.40 1018.69 1018.93 1019.08 1019.09 1018.95 1018.66 1018.26 1017.79 1017.31 1016.91 1016.62 1016.50 1016.56 1016.78 1017.13 1017.57 1018.05 1018.50 1018.91 1019.24 1019.50 1019.68 1019.81 1019.87 1019.88 1019.84 1019.74 1019.58 1019.34 1019.03 1018.67 1018.27 1017.86 1017.47 1017.10 1016.78 1016.49 1016.22
1017.89 1018.14 1018.39 1018.65 1018.90 1019.14 1019.34 1019.47 1019.48 1019.36 1019.07 1018.64 1018.09 1017.48 1016.89 1016.38 1016.01 1015.84 1015.87 1016.08 1016.45 1016.92 1017.42 1017.92 1018.37 1018.75 1019.05 1019.28 1019.44 1019.56 1019.63 1019.64 1019.59 1019.47 1019.27 1018.99 1018.65 1018.26 1017.86 1017.47 1017.11 1016.80 1016.54 1016.30
1018.63 1018.91 1019.16 1019.40 1019.62 1019.80 1019.93 1019.96 1019.87 1019.61 1019.20 1018.63 1017.96 1017.23 1016.53 1015.93 1015.51 1015.29 1015.29 1015.50 1015.87 1016.36 1016.88 1017.40 1017.88 1018.28 1018.60 1018.86 1019.06 1019.21 1019.32 1019.39 1019.39 1019.32 1019.17 1018.94 1018.64 1018.28 1017.91 1017.54 1017.21 1016.93 1016.68 1016.46
1019.20 1019.50 1019.76 1020.00 1020.20 1020.34 1020.42 1020.38 1020.20 1019.86 1019.34 1018.67 1017.89 1017.07 1016.29 1015.63 1015.15 1014.90 1014.89 1015.09 1015.46 1015.95 1016.48 1017.00 1017.47 1017.87 1018.19 1018.45 1018.66 1018.84 1018.98 1019.09 1019.15 1019.14 1019.06 1018.89 1018.64 1018.34 1018.01 1017.68 1017.37 1017.11 1016.88 1016.67
1019.60 1019.90 1020.17 1020.41 1020.61 1020.75 1020.80 1020.72 1020.49 1020.08 1019.49 1018.75 1017.91 1017.03 1016.19 1015.49 1014.98 1014.71 1014.67 1014.86 1015.22 1015.69 1016.20 1016.70 1017.14 1017.52 1017.82 1018.06 1018.27 1018.45 1018.62 1018.77 1018.88 1018.94 1018.92 1018.83 1018.66 1018.42 1018.14 1017.85 1017.57 1017.32 1017.10 1016.88
1019.82 1020.12 1020.40 1020.66 1020.86 1021.00 1021.05 1020.96 1020.71 1020.27 1019.65 1018.87 1017.99 1017.08 1016.22 1015.49 1014.96 1014.66 1014.61 1014.77 1015.10 1015.53 1016.01 1016.47 1016.87 1017.20 1017.46 1017.68 1017.87 1018.05 1018.24 1018.43 1018.59 1018.72 1018.78 1018.77 1018.68 1018.51 1018.28 1018.03 1017.78 1017.53 1017.30 1017.08
1019.90 1020.20 1020.49 1020.75 1020.97 1021.13 1021.19 1021.10 1020.85 1020.40 1019.77 1018.99 1018.10 1017.18 1016.31 1015.57 1015.02 1014.71 1014.62 1014.75 1015.03 1015.41 1015.83 1016.23 1016.58 1016.86 1017.08 1017.27 1017.44 1017.63 1017.83 1018.06 1018.28 1018.48 1018.62 1018.70 1018.68 1018.59 1018.42 1018.21 1017.97 1017.72 1017.48 1017.23
1019.88 1020.17 1020.46 1020.73 1020.96 1021.13 1021.20 1021.12 1020.87 1020.44 1019.81 1019.04 1018.16 1017.25 1016.38 1015.64 1015.08 1014.74 1014.62 1014.70 1014.92 1015.24 1015.58 1015.92 1016.20 1016.44 1016.62 1016.79 1016.95 1017.15 1017.38 1017.65 1017.94 1018.21 1018.44 1018.59 1018.66 1018.64 1018.53 1018.36 1018.14 1017.89 1017.63 1017.36
1019.79 1020.07 1020.34 1020.61 1020.84 1021.00 1021.07 1020.99 1020.75 1020.32 1019.71 1018.96 1018.10 1017.21 1016.36 1015.63 1015.06 1014.69 1014.52 1014.54 1014.69 1014.93 1015.21 1015.47 1015.70 1015.89 1016.06 1016.21 1016.39 1016.61 1016.88 1017.20 1017.54 1017.89 1018.19 1018.44 1018.59 1018.64 1018.59 1018.46 1018.26 1018.02 1017.75 1017.46
1019.68 1019.92 1020.18 1020.42 1020.62 1020.76 1020.80 1020.71 1020.45 1020.02 1019.43 1018.69 1017.86 1017.00 1016.18 1015.46 1014.89 1014.49 1014.28 1014.24 1014.32 1014.48 1014.69 1014.89 1015.07 1015.24 1015.38 1015.54 1015.74 1015.99 1016.31 1016.68 1017.08 1017.49 1017.88 1018.19 1018.42 1018.54 1018.56 1018.48 1018.32 1018.10 1017.84 1017.56
1019.56 1019.77 1019.99 1020.18 1020.33 1020.42 1020.40 1020.26 1019.97 1019.52 1018.93 1018.22 1017.42 1016.60 1015.82 1015.12 1014.56 1014.15 1013.90 1013.80 1013.82 1013.91 1014.05 1014.20 1014.34 1014.48 1014.63 1014.81 1015.03 1015.32 1015.68 1016.09 1016.55 1017.02 1017.46 1017.84 1018.14 1018.33 1018.41 1018.40 1018.29 1018.12 1017.90 1017.65
1019.48 1019.65 1019.80 1019.92 1019.99 1019.99 1019.89 1019.67 1019.32 1018.85 1018.25 1017.56 1016.80 1016.03 1015.30 1014.64 1014.10 1013.69 1013.43 1013.28 1013.24 1013.28 1013.36 1013.46 1013.58 1013.70 1013.86 1014.05 1014.30 1014.61 1015.00 1015.46 1015.95 1016.45 1016.94 1017.37 1017.73 1017.99 1018.14 1018.20 1018.16 1018.06 1017.90 1017.70
1019.45 1019.57 1019.65 1019.67 1019.63 1019.51 1019.30 1018.98 1018.56 1018.04 1017.44 1016.76 1016.06 1015.35 1014.68 1014.08 1013.59 1013.20 1012.93 1012.76 1012.68 1012.66 1012.69 1012.76 1012.84 1012.96 1013.11 1013.32 1013.58 1013.91 1014.32 1014.79 1015.29 1015.81 1016.32 1016.79 1017.19 1017.50 1017.73 1017.86 1017.91 1017.88 1017.81 1017.68
1019.50 1019.55 1019.53 1019.44 1019.27 1019.01 1018.67 1018.25 1017.75 1017.18 1016.57 1015.92 1015.27 1014.64 1014.05 1013.53 1013.09 1012.74 1012.48 1012.30 1012.19 1012.13 1012.12 1012.15 1012.21 1012.31 1012.45 1012.65 1012.92 1013.25 1013.66 1014.12 1014.61 1015.12 1015.63 1016.11 1016.53 1016.89 1017.18 1017.39 1017.52 1017.59 1017.60 1017.57
1019.60 1019.57 1019.45 1019.24 1018.93 1018.54 1018.07 1017.54 1016.96 1016.35 1015.73 1015.12 1014.54 1013.99 1013.49 1013.06 1012.69 1012.38 1012.14 1011.96 1011.83 1011.74 1011.69 1011.68 1011.70 1011.78 1011.90 1012.09 1012.34 1012.66 1013.04 1013.47 1013.93 1014.42 1014.90 1015.37 1015.80 1016.19 1016.52 1016.80 1017.01 1017.17 1017.27 1017.33
1019.72 1019.61 1019.39 1019.06 1018.62 1018.10 1017.51 1016.88 1016.24 1015.61 1015.01 1014.44 1013.92 1013.46 1013.06 1012.71 1012.41 1012.15 1011.93 1011.75 1011.60 1011.47 1011.38 1011.33 1011.32 1011.36 1011.46 1011.63 1011.85 1012.14 1012.48 1012.87 1013.29 1013.73 1014.17 1014.61 1015.04 1015.43 1015.79 1016.11 1016.39 1016.62 1016.80 1016.94
1019.81 1019.62 1019.29 1018.85 1018.30 1017.68 1017.00 1016.31 1015.64 1015.00 1014.42 1013.91 1013.47 1013.09 1012.76 1012.48 1012.24 1012.02 1011.82 1011.62 1011.45 1011.29 1011.16 1011.07 1011.02 1011.03 1011.10 1011.23 1011.43 1011.68 1011.98 1012.32 1012.69 1013.08 1013.47 1013.88 1014.27 1014.66 1015.03 1015.37 1015.69 1015.97 1016.22 1016.41
1019.79 1019.51 1019.09 1018.56 1017.93 1017.24 1016.51 1015.80 1015.12 1014.51 1013.97 1013.52 1013.14 1012.83 1012.57 1012.35 1012.14 1011.94 1011.73 1011.52 1011.32 1011.12 1010.95 1010.82 1010.74 1010.72 1010.76 1010.87 1011.03 1011.25 1011.51 1011.81 1012.13 1012.47 1012.82 1013.18 1013.54 1013.90 1014.26 1014.61 1014.94 1015.25 1015.53 1015.77
1019.60 1019.23 1018.73 1018.13 1017.45 1016.73 1016.00 1015.30 1014.66 1014.09 1013.61 1013.22 1012.90 1012.64 1012.43 1012.23 1012.03 1011.82 1011.60 1011.36 1011.12 1010.89 1010.69 1010.53 1010.43 1010.38 1010.41 1010.50 1010.64 1010.84 1011.07 1011.33 1011.61 1011.91 1012.21 1012.52 1012.84 1013.17 1013.50 1013.83 1014.16 1014.48 1014.77 1015.03
1019.18 1018.72 1018.16 1017.51 1016.82 1016.11 1015.42 1014.77 1014.19 1013.69 1013.28 1012.94 1012.67 1012.45 1012.24 1012.04 1011.83 1011.60 1011.34 1011.07 1010.80 1010.54 1010.32 1010.14 1010.03 1009.98 1010.00 1010.09 1010.23 1010.41 1010.63 1010.87 1011.12 1011.37 1011.64 1011.91 1012.18 1012.47 1012.76 1013.07 1013.37 1013.67 1013.96 1014.23
1018.52 1017.97 1017.36 1016.70 1016.03 1015.36 1014.74 1014.18 1013.68 1013.27 1012.92 1012.63 1012.39 1012.17 1011.96 1011.73 1011.49 1011.22 1010.92 1010.62 1010.32 1010.05 1009.82 1009.65 1009.54 1009.51 1009.54 1009.64 1009.79 1009.97 1010.18 1010.40 1010.63 1010.85 1011.08 1011.31 1011.54 1011.79 1012.04 1012.31 1012.58 1012.85 1013.12 1013.39
1017.64 1017.02 1016.37 1015.72 1015.09 1014.50 1013.97 1013.51 1013.11 1012.78 1012.49 1012.24 1012.01 1011.78 1011.54 1011.27 1010.97 1010.66 1010.33 1010.00 1009.69 1009.42 1009.21 1009.06 1008.98 1008.97 1009.04 1009.15 1009.31 1009.50 1009.71 1009.92 1010.13 1010.33 1010.53 1010.72 1010.92 1011.12 1011.33 1011.56 1011.79 1012.04 1012.29 1012.55
1016.60 1015.91 1015.25 1014.63 1014.07 1013.58 1013.16 1012.80 1012.50 1012.24 1012.00 1011.77 1011.53 1011.27 1010.97 1010.65 1010.31 1009.95 1009.59 1009.25 1008.95 1008.70 1008.52 1008.41 1008.37 1008.41 1008.51 1008.66 1008.83 1009.03 1009.23 1009.43 1009.62 1009.80 1009.97 1010.13 1010.29 1010.46 1010.63 1010.82 1011.03 1011.24 1011.48 1011.73
1015.48 1014.76 1014.11 1013.55 1013.07 1012.68 1012.37 1012.11 1011.89 1011.69 1011.48 1011.24 1010.97 1010.66 1010.31 1009.93 1009.53 1009.13 1008.76 1008.42 1008.15 1007.94 1007.80 1007.75 1007.77 1007.86 1008.00 1008.17 1008.37 1008.57 1008.76 1008.95 1009.12 1009.27 1009.41 1009.55 1009.68 1009.82 1009.96 1010.12 1010.30 1010.50 1010.72 1010.96
Thickness
5561 5564 5560 5558 5560 5563 5565 5567 5569 5569 5567 5570 5577 5583 5589 5591 5592 5595 5599 5601 5602 5603 5604 5603 5603 5603 5604 5605 5607 5608 5610 5611 5612 5615 5617 5618 5620 5621 5623 5623 5624 5625 5626 5627
5562 5556 5551 5553 5556 5560 5563 5565 5566 5565 5564 5567 5574 5581 5589 5590 5591 5593 5596 5598 5599 5599 5599 5598 5598 5599 5599 5600 5601 5601 5602 5603 5604 5605 5607 5608 5610 5612 5613 5614 5615 5617 5618 5618
5557 5550 5549 5552 5554 5557 5558 5560 5560 5559 5562 5565 5569 5585 5589 5589 5588 5589 5591 5593 5594 5595 5595 5595 5594 5594 5594 5594 5594 5594 5594 5595 5596 5597 5598 5600 5602 5604 5606 5607 5608 5608 5609 5610
5552 5548 5547 5550 5551 5554 5556 5552 5552 5553 5562 5567 5565 5576 5589 5589 5587 5587 5589 5590 5591 5591 5590 5590 5589 5589 5588 5587 5586 5586 5587 5587 5588 5589 5590 5592 5595 5597 5598 5598 5599 5600 5600 5601
5550 5546 5547 5548 5547 5547 5549 5547 5548 5550 5555 5559 5563 5565 5588 5584 5586 5590 5590 5589 5588 5587 5586 5584 5583 5582 5581 5580 5579 5579 5580 5580 5580 5581 5582 5584 5586 5587 5588 5589 5590 5591 5592 5592
5547 5543 5543 5543 5542 5542 5543 5545 5546 5547 5553 5558 5561 5562 5581 5589 5589 5589 5588 5586 5585 5583 5581 5579 5578 5576 5575 5573 5572 5572 5573 5573 5573 5573 5574 5575 5576 5578 5579 5580 5581 5582 5583 5583
5547 5544 5541 5540 5543 5543 5544 5549 5554 5556 5558 5566 5553 5556 5577 5588 5584 5582 5582 5581 5581 5579 5577 5575 5574 5572 5570 5568 5566 5566 5566 5566 5566 5565 5566 5566 5567 5568 5569 5570 5571 5572 5574 5574
5546 5547 5541 5538 5540 5541 5541 5544 5548 5553 5561 5567 5553 5561 5583 5582 5577 5575 5575 5575 5574 5574 5573 5571 5569 5567 5565 5563 5561 5560 5560 5559 5558 5558 5558 5558 5558 5559 5560 5560 5561 5562 5563 5564
5546 5544 5537 5534 5533 5536 5538 5540 5536 5538 5537 5544 5566 5568 5578 5577 5574 5573 5573 5571 5571 5569 5567 5566 5564 5562 5560 5558 5556 5554 5553 5553 5552 5551 5551 5550 5550 5550 5550 5551 5551 5551 5552 5553
5538 5536 5537 5532 5531 5529 5532 5533 5532 5532 5539 5553 5566 5568 5576 5577 5576 5573 5571 5569 5568 5565 5563 5561 5559 5557 5555 5553 5551 5549 5548 5547 5546 5544 5544 5543 5542 5541 5541 5541 5542 5542 5543 5544
5533 5532 5535 5532 5533 5536 5527 5526 5528 5530 5531 5540 5555 5574 5577 5573 5571 5568 5567 5565 5563 5560 5558 5557 5554 5552 5549 5547 5545 5544 5542 5541 5540 5538 5536 5535 5535 5534 5534 5534 5534 5534 5535 5535
5529 5529 5533 5536 5530 5524 5527 5529 5528 5529 5530 5527 5537 5563 5572 5566 5562 5559 5560 5558 5557 5555 5553 5551 5549 5547 5545 5542 5541 5539 5537 5535 5534 5532 5530 5529 5529 5528 5527 5527 5527 5527 5527 5527
5526 5525 5531 5542 5530 5521 5522 5524 5523 5523 5521 5525 5531 5560 5563 5557 5556 5555 5554 5554 5553 5550 5548 5546 5545 5542 5540 5538 5536 5534 5533 5531 5529 5527 5525 5524 5523 5522 5522 5522 5521 5521 5521 5521
5524 5525 5528 5540 5543 5532 5526 5524 5520 5515 5517 5530 5539 5556 5562 5557 5555 5554 5552 5550 5549 5547 5544 5542 5540 5539 5536 5534 5531 5529 5528 5526 5523 5521 5520 5519 5518 5517 5516 5515 5515 5515 5515 5515
5520 5523 5524 5526 5526 5523 5523 5524 5521 5517 5524 5528 5546 5549 5557 5555 5551 5550 5548 5546 5544 5543 5540 5538 5536 5536 5533 5530 5528 5526 5524 5521 5519 5517 5515 5514 5513 5511 5510 5509 5509 5509 5509 5509
5515 5516 5513 5518 5520 5517 5518 5527 5526 5524 5524 5529 5533 5541 5553 5549 5544 5544 5544 5541 5540 5539 5538 5535 5533 5532 5530 5528 5525 5523 5521 5518 5515 5513 5512 5510 5508 5506 5505 5504 5503 5502 5502 5502
5509 5508 5507 5521 5517 5513 5530 5542 5535 5531 5533 5530 5533 5544 5547 5542 5540 5540 5540 5537 5536 5536 5534 5532 5530 5529 5527 5525 5522 5520 5517 5514 5511 5510 5508 5506 5504 5502 5500 5498 5497 5497 5496 5496
5505 5501 5501 5507 5508 5515 5550 5538 5534 5531 5533 5531 5533 5538 5537 5535 5534 5532 5532 5533 5534 5532 5530 5529 5527 5525 5523 5521 5518 5515 5512 5510 5508 5506 5504 5502 5500 5498 5496 5494 5493 5492 5491 5491
5498 5496 5495 5496 5505 5524 5542 5533 5524 5522 5531 5533 5529 5531 5530 5527 5525 5533 5531 5527 5527 5526 5525 5524 5522 5520 5518 5516 5513 5510 5508 5506 5504 5503 5501 5499 5496 5493 5491 5490 5489 5488 5487 5486
5480 5484 5487 5489 5489 5510 5542 5524 5515 5515 5527 5531 5524 5523 5521 5516 5525 5533 5527 5521 5520 5519 5518 5517 5517 5515 5513 5511 5508 5505 5504 5503 5502 5501 5498 5496 5492 5490 5488 5487 5485 5483 5482 5481
5472 5471 5476 5482 5486 5513 5528 5513 5505 5513 5529 5521 5517 5515 5512 5512 5518 5520 5516 5514 5513 5513 5512 5511 5510 5509 5508 5506 5502 5501 5501 5501 5500 5497 5494 5491 5489 5487 5485 5483 5481 5479 5478 5476
5488 5482 5478 5481 5479 5505 5517 5502 5508 5519 5515 5510 5508 5507 5505 5506 5507 5506 5506 5506 5506 5506 5506 5505 5504 5504 5503 5499 5497 5497 5498 5498 5494 5491 5489 5487 5485 5482 5480 5478 5477 5475 5473 5472
5488 5497 5498 5494 5507 5516 5507 5507 5508 5503 5502 5502 5500 5499 5496 5496 5498 5499 5499 5500 5500 5499 5499 5498 5498 5499 5497 5494 5492 5493 5494 5491 5488 5486 5484 5483 5480 5478 5476 5474 5472 5470 5469 5468
5483 5478 5479 5484 5499 5502 5498 5496 5495 5492 5491 5492 5489 5488 5486 5486 5489 5490 5492 5492 5492 5492 5492 5491 5490 5492 5493 5490 5488 5488 5488 5485 5482 5481 5480 5478 5475 5474 5471 5469 5467 5466 5465 5464
5483 5469 5468 5478 5490 5490 5492 5489 5488 5486 5483 5481 5480 5479 5478 5479 5481 5482 5483 5484 5485 5484 5484 5483 5483 5485 5487 5485 5483 5482 5480 5478 5476 5476 5474 5472 5470 5468 5466 5464 5463 5461 5460 5459
5474 5470 5469 5479 5485 5480 5485 5483 5478 5475 5475 5474 5473 5473 5472 5470 5472 5473 5475 5475 5475 5475 5475 5475 5476 5477 5478 5478 5477 5476 5473 5471 5470 5469 5468 5466 5464 5461 5460 5458 5456 5453 5451 5449